Le nostre stazioni meteo in Italia

Pubblicità
Il mio iltempo24.it
Monte Terminillo, Italia (16219): Temperatura & dewpoint: 06.11.2019 06:00:00 - 12.11.2019 06:00:00 (CET)Monte Terminillo, Italia (16219): velocità del vento & gusts: 06.11.2019 06:00:00 - 12.11.2019 06:00:00 (CET)Monte Terminillo, Italia (16219): direzione del vento: 06.11.2019 06:00:00 - 12.11.2019 06:00:00 (CET)Monte Terminillo, Italia (16219): ore di luce: 06.11.2019 06:00:00 - 12.11.2019 06:00:00 (CET)
Data & Tempo tt [°C] td [°C] ff [km/h] ff [kn] fx [km/h] fx [kn] dd sd [min]
12.11.2019 06:00:00 3,2 3,2 4 2 - - N 0
12.11.2019 05:00:00 3,1 2,9 28 15 - - ESE 0
12.11.2019 04:00:00 2,6 2,2 44 24 - - ESE 0
12.11.2019 03:00:00 2,6 2,0 46 25 66 36 ESE 0
12.11.2019 02:00:00 - - - - - - - -
12.11.2019 01:00:00 2,2 1,6 34 18 - - ESE 0
12.11.2019 00:00:00 2,1 1,5 50 27 - - ESE 0
11.11.2019 23:00:00 2,1 1,0 41 22 - - ESE 0
11.11.2019 22:00:00 2,3 2,1 44 24 - - ESE 0
11.11.2019 21:00:00 2,4 2,4 35 19 - - ESE 0
11.11.2019 20:00:00 2,4 2,4 35 19 - - ESE 0
11.11.2019 19:00:00 - - - - - - - -
11.11.2019 18:00:00 2,6 2,6 16 9 - - SE 0
11.11.2019 17:00:00 2,9 2,9 18 10 - - SE 0
11.11.2019 16:00:00 - - - - - - - -
11.11.2019 15:00:00 2,7 2,7 29 16 - - SE 3
11.11.2019 14:00:00 1,5 1,4 24 13 - - SE 2
11.11.2019 13:00:00 1,7 1,7 26 14 - - SSE 12
11.11.2019 12:00:00 1,4 1,4 22 12 - - S 0
11.11.2019 11:00:00 1,1 1,1 21 11 - - S 0
11.11.2019 10:00:00 0,9 0,9 26 14 - - S 0
11.11.2019 09:00:00 0,6 0,6 29 16 - - SSE 0
11.11.2019 08:00:00 - - - - - - - -
11.11.2019 07:00:00 0,0 0,0 37 20 - - SE 0
11.11.2019 06:00:00 0,1 0,1 41 22 - - SE 0
11.11.2019 05:00:00 0,2 0,2 52 28 - - SE 0
11.11.2019 04:00:00 0,2 0,2 44 24 - - ESE 0
11.11.2019 03:00:00 0,1 0,1 41 22 - - ESE 0
11.11.2019 02:00:00 0,0 0,0 35 19 - - ESE 0
11.11.2019 01:00:00 - - - - - - - -
11.11.2019 00:00:00 -0,1 -0,3 41 22 - - ESE 0
10.11.2019 23:00:00 0,0 -0,5 37 20 - - ESE 0
10.11.2019 22:00:00 0,0 -0,7 35 19 - - ESE 0
10.11.2019 21:00:00 0,0 -0,5 35 19 - - SE 0
10.11.2019 20:00:00 -0,1 -0,1 35 19 - - ESE 0
10.11.2019 19:00:00 - - - - - - - -
10.11.2019 18:00:00 0,3 0,3 34 18 - - SE 0
10.11.2019 17:00:00 0,4 0,2 24 13 - - SE 0
10.11.2019 16:00:00 0,4 0,2 15 8 - - ESE 19
10.11.2019 15:00:00 0,2 0,0 11 6 - - S 4
10.11.2019 14:00:00 0,1 0,0 11 6 - - SSO 0
10.11.2019 13:00:00 -0,5 -0,5 4 2 - - N 3
10.11.2019 12:00:00 -0,5 -0,5 11 6 - - ESE 27
10.11.2019 11:00:00 -0,8 -0,9 22 12 - - ESE 0
10.11.2019 10:00:00 -1,3 -1,4 15 8 - - SE 24
10.11.2019 09:00:00 -1,4 -1,6 21 11 - - E 10
10.11.2019 08:00:00 -1,0 -1,2 16 9 - - ESE 7
10.11.2019 07:00:00 -0,7 -1,1 18 10 - - ESE 0
10.11.2019 06:00:00 -0,9 -1,1 4 2 - - N 0
10.11.2019 05:00:00 -0,6 -1,0 5 3 - - E 0
10.11.2019 04:00:00 -0,4 -0,7 5 3 - - E 0
10.11.2019 03:00:00 -0,6 -0,6 5 3 - - ESE 0
10.11.2019 02:00:00 -0,7 -0,7 8 4 - - SSE 0
10.11.2019 01:00:00 -0,8 -0,9 11 6 - - SE 0
10.11.2019 00:00:00 -0,9 -0,9 21 11 - - ESE 0
09.11.2019 23:00:00 -0,7 -0,8 24 13 - - ESE 0
09.11.2019 22:00:00 -0,7 -1,0 22 12 - - ESE 0
09.11.2019 21:00:00 -0,4 -0,8 16 9 - - ESE 0
09.11.2019 20:00:00 -0,5 -1,1 16 9 - - E 0
09.11.2019 19:00:00 -0,8 -1,3 22 12 - - ESE 0
09.11.2019 18:00:00 -1,1 -1,3 21 11 - - E 0
09.11.2019 17:00:00 - - - - - - - -
09.11.2019 16:00:00 0,4 -1,1 29 16 - - E 0
09.11.2019 15:00:00 0,3 -1,4 18 10 - - SE 1
09.11.2019 14:00:00 0,7 -0,5 16 9 - - ESE 0
09.11.2019 13:00:00 0,5 -0,2 15 8 - - SE 36
09.11.2019 12:00:00 -0,5 -1,5 4 2 - - N 60
09.11.2019 11:00:00 -1,0 -1,9 4 2 - - N 59
09.11.2019 10:00:00 -1,0 -1,8 4 2 - - N 4
09.11.2019 09:00:00 -0,8 -1,2 4 2 - - N 0
09.11.2019 08:00:00 -0,8 -1,1 4 2 - - N 0
09.11.2019 07:00:00 -0,8 -1,1 4 2 - - N 0
09.11.2019 06:00:00 -0,6 -0,9 4 2 - - N 0
09.11.2019 05:00:00 -0,3 -0,5 4 2 - - N 0
09.11.2019 04:00:00 0,0 -0,1 4 2 - - N 0
09.11.2019 03:00:00 0,2 0,1 4 2 40 22 N 0
09.11.2019 02:00:00 0,5 0,4 4 2 36 19 N 0
09.11.2019 01:00:00 - - - - - - - -
09.11.2019 00:00:00 1,3 1,2 4 2 - - N 0
08.11.2019 23:00:00 1,6 1,5 4 2 44 24 N 0
08.11.2019 22:00:00 1,7 1,5 4 2 - - N 0
08.11.2019 21:00:00 2,3 2,2 4 2 - - N 0
08.11.2019 20:00:00 2,7 2,7 4 2 - - N 0
08.11.2019 19:00:00 2,6 2,6 4 2 - - N 0
08.11.2019 18:00:00 2,8 2,8 4 2 - - N 0
08.11.2019 17:00:00 - - - - - - - -
08.11.2019 16:00:00 2,7 2,7 9 5 - - - 0
08.11.2019 15:00:00 2,4 2,3 9 5 - - NE 0
08.11.2019 14:00:00 2,6 2,5 4 2 30 16 N 0
08.11.2019 13:00:00 2,4 2,3 15 8 - - - 0
08.11.2019 12:00:00 2,6 2,5 4 2 34 18 N 0
08.11.2019 11:00:00 - - - - - - - -
08.11.2019 10:00:00 2,0 2,0 4 2 - - N 0
08.11.2019 09:00:00 1,3 1,2 9 5 - - N 0
08.11.2019 08:00:00 1,0 0,1 4 2 32 18 N 0
08.11.2019 07:00:00 0,3 -2,1 26 14 - - SSO 0
08.11.2019 06:00:00 0,2 -2,2 28 15 - - SSO 0
08.11.2019 05:00:00 0,5 -0,9 21 11 - - S 0
08.11.2019 04:00:00 0,1 -2,6 5 3 - - - 0
08.11.2019 03:00:00 0,5 -1,4 4 2 - - N 0
08.11.2019 02:00:00 0,8 -0,5 4 2 - - N 0
08.11.2019 01:00:00 1,3 0,5 4 2 - - N 0
08.11.2019 00:00:00 1,5 0,7 4 2 - - N 0
07.11.2019 23:00:00 1,7 1,0 4 2 - - N 0
07.11.2019 22:00:00 1,9 1,1 8 4 - - - 0
07.11.2019 21:00:00 2,3 1,1 11 6 - - SSO 0
07.11.2019 20:00:00 2,7 0,8 4 2 - - N 0
07.11.2019 19:00:00 2,9 1,3 5 3 - - - 0
07.11.2019 18:00:00 4,3 3,5 5 3 - - O 0
07.11.2019 17:00:00 4,0 3,3 4 2 - - SSE 48
07.11.2019 16:00:00 3,6 2,9 4 2 - - N 33
07.11.2019 15:00:00 3,3 2,7 4 2 - - N 2
07.11.2019 14:00:00 3,0 2,5 4 2 - - N 3
07.11.2019 13:00:00 2,7 2,1 4 2 - - N 13
07.11.2019 12:00:00 1,7 1,2 5 3 - - O 33
07.11.2019 11:00:00 0,9 0,4 9 5 - - NO 59
07.11.2019 10:00:00 0,6 0,2 13 7 - - ONO 53
07.11.2019 09:00:00 0,2 -0,2 4 2 - - N 49
07.11.2019 08:00:00 0,3 -0,2 9 5 - - O 34
07.11.2019 07:00:00 0,5 0,2 8 4 - - - 0
07.11.2019 06:00:00 0,6 0,5 4 2 - - N 0
07.11.2019 05:00:00 0,8 0,7 4 2 - - N 0
07.11.2019 04:00:00 1,1 1,0 4 2 - - N 0
07.11.2019 03:00:00 1,2 1,2 4 2 - - N 0
07.11.2019 02:00:00 1,1 1,1 4 2 38 20 N 0
07.11.2019 01:00:00 1,2 1,2 4 2 - - N 0
07.11.2019 00:00:00 1,5 1,5 4 2 42 23 N 0
06.11.2019 23:00:00 1,5 1,5 4 2 34 18 N 0
06.11.2019 22:00:00 1,4 1,4 4 2 - - N 0
06.11.2019 21:00:00 1,3 1,3 4 2 35 19 N 0
06.11.2019 20:00:00 1,2 1,1 4 2 - - N 0
06.11.2019 19:00:00 1,8 1,8 9 5 - - - 0
06.11.2019 18:00:00 1,8 1,8 4 2 - - N 0
06.11.2019 17:00:00 2,2 2,2 4 2 - - N 5
06.11.2019 16:00:00 2,1 2,1 8 4 - - - 0
06.11.2019 15:00:00 2,2 2,2 4 2 - - N 0
06.11.2019 14:00:00 2,8 2,8 4 2 46 25 N 0
06.11.2019 13:00:00 2,4 2,4 4 2 - - N 1
06.11.2019 12:00:00 2,4 2,3 4 2 - - N 0
06.11.2019 11:00:00 2,2 2,1 4 2 34 18 N 0
06.11.2019 10:00:00 2,3 2,2 4 2 - - N 0
06.11.2019 09:00:00 2,2 2,2 4 2 31 17 N 0
06.11.2019 08:00:00 2,2 2,1 4 2 - - N 0
06.11.2019 07:00:00 2,4 2,3 9 5 - - - 0
06.11.2019 06:00:00 2,5 2,5 4 2 28 15 N 0

tt = Temperatura
td = dewpoint
ff = velocità del vento
fx = gusts
dd = direzione del vento
sd = ore di luce

Stazioni seguenti

WeatherPro
AMSI
MeteoEarth